Weather History for KRHI - April, 2013

Change the Weather History Date:

Thursday, April 25, 2013

  Actual Average Record
Temperature  
Mean Temperature 38 °F 46 °F  
Max Temperature 46 °F 58 °F 84 °F (1990)
Min Temperature 29 °F 34 °F 19 °F (1972)
Degree Days  
Heating Degree Days 27 19  
Month to date heating degree days 839 613  
Since 1 July heating degree days 8568 8408  
Cooling Degree Days 0 0  
Month to date cooling degree days 0 0  
Year to date cooling degree days 0 0  
Moisture  
Dew Point 27 °F    
Average Humidity 66    
Maximum Humidity 92    
Minimum Humidity 40    
Precipitation  
Precipitation 0.18 in 0.10 in 0.70 in (1950)
Month to date precipitation 3.68 2.08  
Year to date precipitation 8.49 5.69  
Snow  
Snow 1.80 in - 5.30 in (1909)
Month to date snowfall 14.8  
Since 1 July snowfall 83.6  
Snow Depth 9.00 in    
Sea Level Pressure  
Sea Level Pressure 30.04 in    
Wind  
Wind Speed 8 mph (West)    
Max Wind Speed 20 mph    
Max Gust Speed 25 mph    
Visibility 9 miles    
Events Snow    
T = Trace of Precipitation, MM = Missing Value Source: NWS Daily Summary

Daily Weather History Graph

Daily Weather History Graph

Search for Another Location

Airport or City:

Trip Planner

Search our weather history database for the weather conditions in past years. The results will help you decide how hot, cold, wet, or windy it might be!

Date:

Astronomy

Apr. 25, 2013 Rise Set
Actual Time 5:54 AM CDT 7:57 PM CDT
Civil Twilight 5:22 AM CDT 8:29 PM CDT
Nautical Twilight 4:43 AM CDT 9:09 PM CDT
Astronomical Twilight 3:59 AM CDT 9:53 PM CDT
Moon 8:12 PM CDT (4/25) 5:38 AM CDT (4/25)
Length of Visible Light 15h 07m
Length of Day
14h 02m
Full, 100% of the Moon is Illuminated
Apr 25
Full
Apr 25
Full
May 2
Last Quarter
May 9
New
May 17
First Quarter

Hourly Weather History & Observations

Time (CDT) Temp. Windchill Dew Point Humidity Pressure Visibility Wind Dir Wind Speed Gust Speed Precip Events Conditions
12:53 AM 33.1 °F 26.9 °F 30.9 °F 92% 29.91 in 0.8 mi NW 6.9 mph - 0.06 in Snow Light Snow
12:57 AM 33.8 °F 28.6 °F 30.2 °F 87% 29.87 in 1.0 mi NW 5.8 mph - 0.01 in Snow Light Snow
1:05 AM 33.8 °F 30.8 °F 30.2 °F 87% 29.87 in 2.0 mi NW 3.5 mph - 0.01 in Snow Light Snow
1:21 AM 33.8 °F 29.6 °F 30.2 °F 87% 29.87 in 4.0 mi WNW 4.6 mph - 0.01 in Snow Light Snow
1:30 AM 33.8 °F 28.6 °F 30.2 °F 87% 29.87 in 4.0 mi West 5.8 mph - 0.01 in Snow Light Snow
1:48 AM 33.8 °F 25.8 °F 30.2 °F 87% 29.87 in 10.0 mi West 10.4 mph - 0.01 in   Overcast
1:53 AM 33.1 °F 24.9 °F 30.9 °F 92% 29.92 in 10.0 mi West 10.4 mph - 0.01 in   Overcast
2:36 AM 33.8 °F 27.0 °F 30.2 °F 87% 29.88 in 10.0 mi West 8.1 mph - N/A   Overcast
2:53 AM 33.1 °F 26.1 °F 28.9 °F 85% 29.93 in 10.0 mi WNW 8.1 mph - N/A   Overcast
3:31 AM 32.0 °F 23.6 °F 28.4 °F 87% 29.89 in 10.0 mi West 10.4 mph - N/A   Overcast
3:53 AM 30.9 °F 22.8 °F 28.0 °F 89% 29.95 in 10.0 mi WNW 9.2 mph - N/A   Mostly Cloudy
4:53 AM 30.9 °F 24.3 °F 27.0 °F 85% 29.96 in 10.0 mi West 6.9 mph - N/A   Mostly Cloudy
5:33 AM 30.2 °F 23.4 °F 26.6 °F 86% 29.94 in 10.0 mi West 6.9 mph - N/A   Mostly Cloudy
5:53 AM 30.9 °F 25.2 °F 28.0 °F 89% 30.00 in 10.0 mi West 5.8 mph - N/A   Overcast
6:50 AM 28.4 °F 21.2 °F 26.6 °F 93% 29.97 in 8.0 mi West 6.9 mph - N/A   Scattered Clouds
6:53 AM 28.9 °F 21.1 °F 26.1 °F 89% 30.02 in 8.0 mi West 8.1 mph - N/A   Scattered Clouds
7:53 AM 32.0 °F 24.8 °F 28.0 °F 85% 30.05 in 10.0 mi West 8.1 mph - N/A   Partly Cloudy
8:53 AM 34.0 °F 27.2 °F 28.9 °F 82% 30.08 in 10.0 mi West 8.1 mph - N/A   Clear
9:53 AM 37.0 °F 30.4 °F 28.9 °F 73% 30.11 in 10.0 mi West 9.2 mph - N/A   Partly Cloudy
10:53 AM 39.0 °F 31.8 °F 27.0 °F 62% 30.13 in 10.0 mi West 11.5 mph - N/A   Scattered Clouds
11:53 AM 41.0 °F 33.9 °F 27.0 °F 57% 30.14 in 10.0 mi West 12.7 mph 21.9 mph N/A   Overcast
12:53 PM 39.0 °F 31.8 °F 27.0 °F 62% 30.17 in 10.0 mi West 11.5 mph 25.3 mph N/A   Overcast
1:53 PM 45.0 °F 37.6 °F 26.1 °F 48% 30.17 in 10.0 mi WSW 17.3 mph 23.0 mph N/A   Mostly Cloudy
2:53 PM 44.1 °F 38.6 °F 24.1 °F 45% 30.17 in 10.0 mi WSW 10.4 mph - N/A   Scattered Clouds
3:53 PM 45.0 °F 40.1 °F 21.0 °F 39% 30.17 in 10.0 mi SSW 9.2 mph 17.3 mph N/A   Partly Cloudy
4:53 PM 45.0 °F 40.6 °F 23.0 °F 42% 30.17 in 10.0 mi WSW 8.1 mph - N/A   Clear
5:53 PM 45.0 °F 39.3 °F 21.9 °F 40% 30.19 in 10.0 mi SW 11.5 mph - N/A   Partly Cloudy
6:53 PM 44.1 °F 38.6 °F 21.9 °F 42% 30.20 in 10.0 mi SSW 10.4 mph 19.6 mph N/A   Mostly Cloudy
7:53 PM 41.0 °F 36.4 °F 23.0 °F 49% 30.21 in 10.0 mi SW 6.9 mph - N/A   Clear
9:53 PM 33.1 °F 30.0 °F 23.0 °F 66% 30.24 in 10.0 mi SSW 3.5 mph - N/A   Clear
10:53 PM 30.0 °F - 21.9 °F 72% 30.25 in 10.0 mi Calm Calm - N/A   Clear
11:53 PM 30.0 °F - 23.0 °F 75% 30.25 in 10.0 mi Calm Calm - N/A   Clear